Погода в Каясане

Россия / Курганская область     55°12′22″N   62°14′35″E
темп.,
°C
ветер,
м/с
пор.,
м/с
влажн.,
%
обл.,
%
осадки,
мм/ч
давл.,
гПа
погр.,
м
31 июля, сб
сб3123:00+14юз47933 3.9 1005120
02:00+15з49950 0.0 1006179
05:00+15з49950 0.0 1007182
08:00+19зсз468599 0.0 1008309
11:00+24зсз456310 0.0 10081222
14:00+26з464999 0.0 10081935
17:00+27юв1345100 0.0 10081465
20:00+22юв3567100 0.1 100870
1 августа, вс
вс123:00+18юв3495100 2.4 100982
02:00+18ю4109557 0.1 1007202
05:00+17ююз48969 0.1 1006157
08:00+21зсз5128115 0.0 1007524
11:00+25зсз710614 0.0 10081291
14:00+28зсз7944100 0.0 10082501
17:00+28зсз610431 0.0 10092629
20:00+22зсз35570 0.0 101077
2 августа, пн
пн223:00+21зюз46575 0.0 1010102
02:00+17зсз34761 0.0 101249
05:00+16з358188 0.0 101377
08:00+20зсз57686 0.0 1014320
11:00+25сз69497 0.0 10141794
14:00+27сз694025 0.0 10142504
17:00+24зсз375196 0.0 1014249
20:00+23зсз346220 0.0 101467
3 августа, вт
вт323:00+20зсз336316 0.0 101425
02:00+19зюз336548 0.0 101423
05:00+18зюз367296 0.0 101597
08:00+22зюз596293 0.0 1015302
11:00+28зюз56436 0.0 1014917
14:00+31зсз46337 0.0 10132347
17:00+31зсз463229 0.0 10122284
20:00+26зсз22465 0.0 101217
4 августа, ср
ср423:00+23зсз224611 0.0 101311
02:00+20юз11535 0.0 101411
05:00+20ююв22561 0.0 101411
08:00+24юв23545 0.0 1014155
11:00+29ю334132 0.3 1013521
14:00+32ю33336 0.0 10121210
17:00+33вюв11320 0.0 10121526
20:00+28в11473 0.0 101211